Удельная

Россия / Московская область     55°38′09″N   38°02′39″E
темп.,
°C
ветер,
м/с
пор.,
м/с
влажн.,
%
обл.,
%
осадки,
мм/ч
давл.,
гПа
погр.,
м
14 июня, пн
пн1400:00+16ююз23826 0.0 101049
03:00+15ю22870 0.0 101121
06:00+17ю23835 0.0 1012132
09:00+21ююз23645 0.0 1013621
12:00+25юз23486 0.0 10141672
15:00+25юз235189 0.0 10141193
18:00+24с225670 0.0 1014497
21:00+20ююв117165 0.1 101424
15 июня, вт
вт1500:00+18в118038 0.1 101415
03:00+16всв128741 0.4 101423
06:00+18в11825 0.0 1014106
09:00+23ююв11635 0.0 1014544
12:00+26ююз22501 0.1 10121564
15:00+27ююз334491 0.1 10112264
18:00+23юз2464100 0.3 1010102
21:00+21зсз227512 0.3 100946
16 июня, ср
ср1600:00+18сз228970 1.8 100941
03:00+17сз239272 2.9 100960
06:00+17ссз39870 0.0 1010288
09:00+20с5765100 0.0 1012663
12:00+23ссз565516 0.0 10131390
15:00+24ссз67381 0.0 10142173
18:00+22с463978 0.0 10151873
21:00+17ссв255998 0.0 1017168
17 июня, чт
чт1700:00+15с255968 0.0 1020123
03:00+13ссз25696 0.0 1021113
06:00+14с25625 0.0 1023155
09:00+20с23435 0.0 1024791
12:00+23ссз34350 0.0 10242099
15:00+24ссз34330 0.0 10242222
18:00+23с35400 0.0 10241832
21:00+19сз22571 0.0 102523
18 июня, пт
пт1800:00+16сз226915 0.0 102634
03:00+15зсз11691 0.0 102716
06:00+17зсз23651 0.0 1028124
09:00+22з23475 0.0 1028608
12:00+26зюз23375 0.0 10271819
15:00+27юз343514 0.0 10262143
18:00+26зюз244217 0.0 10261707
21:00+21зюз24621 0.0 102696